Regional Weather Roundup
Issued by NWS Kansas City/Pleasant Hill, MO

Home | Current Version | Previous Version | Text Only | Print | Product List | Glossary On
Versions: 1 2 3 4 5 6 7 8 9 10 11 12 13 14 15 16 17 18 19 20 21 22 23 24 25 26 27
000
ASUS43 KEAX 242110
RWREAX

WEATHER ROUNDUP FOR EASTERN KANSAS AND NORTHWEST MISSOURI
NATIONAL WEATHER SERVICE KANSAS CITY/PLEASANT HILL MO
400 PM CDT MON JUL 24 2017

KSZ040-057-103>105-MOZ028-029-037-043-242200-
...KANSAS CITY METROPOLITAN AREA...

CITY           SKY/WX    TMP DP  RH WIND       PRES   REMARKS
K.C. INTL      SUNNY     87  66  49 E5        29.99F
K.C. DOWNTOWN  SUNNY     88  66  48 E7        29.97S HX  90
LEES SUMMIT    SUNNY     85  68  56 E8        29.99F
OLATHE - IXD   SUNNY     87  69  54 SE5       29.99S HX  91
OLATHE - OJC   SUNNY     85  71  63 SE8       29.99S HX  90
LAWRENCE       SUNNY     89  71  55 E7        29.97F HX  95

$$

MOZ001>008-011>017-020>025-030>033-038>040-044>046-053-054-242200-
...NORTHERN AND CENTRAL MISSOURI...

CITY           SKY/WX    TMP DP  RH WIND       PRES   REMARKS
ST. JOSEPH     SUNNY     88  67  49 VRB6      29.98F HX  91
MOSBY          CLEAR     84  63  48 CALM      29.98F
WARRENSBURG    SUNNY     84  64  51 E6        29.99S
WHITEMAN AFB   MOSUNNY   86  66  50 NE6       29.98F
CLINTON        MOSUNNY   86  72  62 CALM      29.98F HX  92
SEDALIA        SUNNY     87  70  56 N5        30.00F HX  92
WARSAW         NOT AVBL
CHILLICOTHE      N/A     85  65  51 E7        30.01S
KIRKSVILLE     PTSUNNY   83  61  47 CALM      30.02S

$$

MOZ041-047>049-056>058-063>065-088>090-097-242200-
...EASTERN AND SOUTHERN MISSOURI...

CITY           SKY/WX    TMP DP  RH WIND       PRES   REMARKS
ST. LOUIS INTL MOSUNNY   90  65  43 N12       29.97S HX  92
SPIRIT OF STL  MOSUNNY   90  65  43 VRB6      29.95S HX  92
COLUMBIA       SUNNY     87  67  51 NE5       29.99F HX  90
JEFFERSON CITY MOSUNNY   87  68  52 CALM      29.96F HX  90
ROLLA          SUNNY     89  65  44 VRB3      29.97F HX  91
OSAGE BEACH    SUNNY     91  66  43 N6        29.97F HX  93
SPRINGFIELD    MOSUNNY   93  70  46 W7        29.97S HX  99
BRANSON        MOSUNNY   93  66  40 S3        29.98F HX  96
JOPLIN         MOSUNNY   96  71  44 VRB5      29.96F HX 103
WEST PLAINS    PTSUNNY   92  65  40 SE9       29.97F HX  94

$$

IAZ060-094-KSZ022-034>040-054-083-096-NEZ052-066-093-242200-
...KANSAS...SOUTHEAST NEBRASKA AND IOWA...

CITY           SKY/WX    TMP DP  RH WIND       PRES   REMARKS
TOPEKA         SUNNY     89  73  59 E8        29.96F HX  97
MANHATTAN      SUNNY     95  72  47 VRB6      29.94F HX 103
EMPORIA        SUNNY     94  71  47 E7        29.97F HX 101
CHANUTE        MOSUNNY   94  73  50 MISG      29.96F HX 103
WICHITA        MOSUNNY   96  68  39 S6        29.95F HX 101
OMAHA          MOSUNNY   86  64  47 SE13      29.97F
LINCOLN        SUNNY     88  67  49 S9        29.97F HX  91
FALLS CITY     SUNNY     86  69  56 VRB5      29.97F HX  90
LAMONI         SUNNY     85  63  47 SE7       30.01S
DES MOINES     PTSUNNY   83  61  47 SE6       30.00S

$$





USA.gov is the U.S. government's official web portal to all federal, state and local government web resources and services.